Regional Weather Roundup
Issued by NWS

Home | Current Version | Previous Version | Text Only | Print | Product List | Glossary Off
Versions: 1 2 3 4 5 6 7 8 9 10 11 12 13 14 15 16 17 18 19 20 21 22 23 24 25 26 27 28 29 30 31 32 33 34 35 36 37 38 39 40 41 42 43 44 45 46 47 48 49 50

000
ASUS43 KTOP 041608
RWRKS

WEATHER ROUNDUP FOR KANSAS
NATIONAL WEATHER SERVICE GOODLAND KS
1000 AM CST SUN DEC 04 2016

NOTE:  "FAIR" INDICATES FEW OR NO CLOUDS BELOW 12,000 FEET WITH NO
SIGNIFICANT WEATHER AND/OR OBSTRUCTIONS TO VISIBILITY.

KSZ001>006-013>018-027>032-041>047-041700-
NORTHWEST KANSAS

CITY           SKY/WX    TMP DP  RH WIND       PRES   REMARKS
GOODLAND       SUNNY     35  16  45 W16       30.06R WCI  25
HAYS           SUNNY     35  25  66 NW17      30.05S WCI  25
HILL CITY      SUNNY     36  25  64 NW12      30.06S WCI  28
RUSSELL        SUNNY     35  28  75 NW13      30.04R WCI  26
$$

KSZ061>065-074>080-084>089-041700-
SOUTHWEST KANSAS

CITY           SKY/WX    TMP DP  RH WIND       PRES   REMARKS
DODGE CITY     SUNNY     35  26  69 NW10      30.10R WCI  27
ELKHART          N/A     34  22  61 W5          N/A
GARDEN CITY    SUNNY     31  23  72 NW13      30.09R WCI  21
GREAT BEND     SUNNY     36  28  73 W9        30.08R
LIBERAL        SUNNY     34  27  75 NW9       30.12R
PRATT          SUNNY     36  30  79 NW12      30.07R WCI  28
$$

KSZ066>073-081>083-090>101-041700-
SOUTHEAST KANSAS

CITY           SKY/WX    TMP DP  RH WIND       PRES   REMARKS
CHANUTE        PTSUNNY   43  38  82 NW10      30.05R
COFFEYVILLE    MOSUNNY   45  42  89 NW8       30.07R
HUTCHINSON     PTSUNNY   38  36  92 NW8       30.07S
MEDICINE LODGE   N/A     37  35  92 NW7       30.08R
NEWTON         FOG       34  34 100 W10       30.07R VSB 1/4 WCI  26
PARSONS        PTSUNNY   45  40  82 NW9       30.07R
WICHITA INTL   FOG       37  36  96 NW9       30.07R VSB 1/2
WICHITA JABRA  CLOUDY    39  37  92 NW9       30.06S
WICHITA MCCONL PTSUNNY   40  37  89 W10       30.06R WCI  34
WINFIELD       MOSUNNY   46  41  82 NW12      30.08R
$$

KSZ007>012-019>026-033>040-048>060-102>105-041700-
NORTHEAST KANSAS

CITY           SKY/WX    TMP DP  RH WIND       PRES   REMARKS
CONCORDIA      CLOUDY    33  33 100 W13       30.05R WCI  24
EMPORIA        CLOUDY    41  37  86 W9        30.04S
LAWRENCE       CLOUDY    41  38  89 W8        30.04R
MANHATTAN      CLOUDY    35  34  96 W8        30.06S FOG
MARYSVILLE     CLOUDY    34  32  93 W5        30.02F
OLATHE IND     PTSUNNY   39  37  92 W8        30.02S
OLATHE EXE     CLOUDY    38  36  92 W3        30.01F
SALINA         CLOUDY    37  34  89 NW12      30.07S WCI  29
TOPEKA BILLARD CLOUDY    41  37  86 W9        30.04R
TOPEKA FORBES  CLOUDY    42  38  85 W14       30.03S
$$




USA.gov is the U.S. government's official web portal to all federal, state and local government web resources and services.